Location: Bord�res
(43.2000°N, 0.2167°W)
Time: 11:31:16
(UTC+00:00)

Meteor 1-19 Rocket - Pass Details

Date: 03 March 2021
Orbit: 807 x 928 km, 81.2° (Epoch: 20 April)

Event Time Altitude Azimuth Distance (km) Brightness Sun altitude
Rises 18:41:53 0° 350° (N) 3,563 7.6 -9.8°
Reaches altitude 10° 18:44:24 10° 352° (N) 2,605 6.9 -10.2°
Maximum altitude 18:50:21 78° 79° (E) 916 4.3 -11.3°
Drops below altitude 10° 18:56:05 10° 166° (SSE) 2,510 6.5 -12.4°
Sets 18:58:28 0° 168° (SSE) 3,425 7.2 -12.8°
